Home   Weather   San Miguel   Past weeks

Flag for El Salvador Past Weather in San Miguel, El Salvador — Yesterday and Last 2 Weeks

Now
72 °F

Passing clouds.


Feels Like: 71 °F
Forecast: 68 / 94 °F
Wind: 5 mph from Northeast

Location: El Salvador Intl. Airport / Comalapa

Current Time: Jan 19, 2017 at 4:59:04 am

Latest Report: Jan 19, 2017 at 2:50 am


Visibility: N/A

Pressure: 29.86 "Hg

Humidity: 83%

Dew Point: 66 °F

Location of San MiguelLocation

Past Weather in San Miguel — Graph

°F

San Miguel Temperature Yesterday

Maximum temperature yesterday: 91 °F (at 11:50 am)
Minimum temperature yesterday: 68 °F (at 6:50 am)
Average temperature yesterday: 79 °F

High & Low Weather Summary for the Past Weeks

 TemperatureHumidityPressure
High95 °F (Jan 8, 11:50 am)100% (Jan 6, 7:50 pm)30.98 "Hg (Jan 6, 7:50 pm)
Low64 °F (Jan 16, 4:50 am)28% (Jan 10, 1:50 pm)29.74 "Hg (Jan 4, 2:50 pm)
Average80 °F62%29.89 "Hg
* Reported Jan 4 2:50 am — Jan 19 2:50 am, San Miguel, Weather by CustomWeather, © 2017

Note: Actual official high and low records may vary slightly from our data, if they occured in-between our weather recording intervals... More about our weather records

Advertising

San Miguel Weather History for the Previous 24 Hours

Scroll right to see more
 ConditionsComfort  
Time TempWeatherWind HumidityBarometerVisibility
2:50 am
Thu, Jan 19
72 °FPassing clouds.5 mph83%29.86 "HgN/A
1:50 am70 °FClear.2 mph88%29.86 "Hg10 mi
12:50 am70 °FClear.5 mph88%29.89 "Hg10 mi
11:50 pm
Wed, Jan 18
70 °FClear.6 mph94%29.92 "Hg10 mi
10:50 pm70 °FClear.1 mph94%29.92 "Hg10 mi
9:50 pm73 °FClear.1 mph89%29.92 "Hg10 mi
8:50 pm75 °FClear.7 mph83%29.92 "Hg10 mi
7:50 pm77 °FPassing clouds.5 mph79%29.89 "HgN/A
6:50 pm79 °FClear.5 mph74%29.86 "Hg10 mi
5:50 pm79 °FClear.6 mph70%29.86 "Hg10 mi
4:50 pm86 °FPassing clouds.6 mph52%29.86 "HgN/A
3:50 pm86 °FPassing clouds.7 mph52%29.86 "HgN/A
2:50 pm88 °FPassing clouds.8 mph52%29.83 "HgN/A
1:50 pm90 °FPassing clouds.9 mph49%29.86 "HgN/A
12:50 pm90 °FPassing clouds.12 mph49%29.86 "HgN/A
11:50 am91 °FPassing clouds.7 mph41%29.92 "HgN/A
10:50 am90 °FPassing clouds.6 mph46%29.95 "HgN/A
9:50 am90 °FPassing clouds.7 mph46%29.95 "HgN/A
8:50 am84 °FPassing clouds.5 mph62%29.95 "HgN/A
7:50 am77 °FSunny.5 mph69%29.95 "Hg10 mi
6:50 am68 °FSunny.3 mph94%29.92 "Hg10 mi
5:50 am70 °FClear.6 mph83%29.92 "Hg10 mi
4:50 am72 °FClear.6 mph83%29.89 "Hg10 mi
Weather by CustomWeather, © 2017

See weather overviewHow to use our weather pages